Regional Weather Roundup
Issued by NWS Little Rock, AR

Home | Current Version | Previous Version | Graphics & Text | Print | Product List | Glossary On
Versions: 1 2 3 4 5 6 7 8 9 10 11 12 13 14 15 16 17 18 19 20 21 22 23 24 25 26 27 28 29 30 31 32 33 34 35 36 37 38 39 40 41 42 43 44 45 46 47 48 49
000
ASUS44 KLZK 062205
RWRLZK

WEATHER ROUNDUP FOR ARKANSAS
NATIONAL WEATHER SERVICE LITTLE ROCK AR
500 PM CDT MON JUL 06 2015

NOTE: "FAIR" INDICATES FEW OR NO CLOUDS BELOW 12,000 FEET WITH NO
SIGNIFICANT WEATHER AND/OR OBSTRUCTIONS TO VISIBILITY.

ARZ001-003-010-029-062300-
NORTHWEST ARKANSAS

CITY           SKY/WX    TMP DP  RH WIND       PRES   REMARKS
FAYETTEVILLE   MOSUNNY   82  72  71 S18G24    29.94F HX  87
FORT SMITH     MOSUNNY   87  71  58 S17       29.93F HX  93
HARRISON       PTSUNNY   83  73  72 S12       29.96F HX  89
BENTONVILLE    MOSUNNY   84  72  65 S16G24    29.94F HX  89
ROGERS         PTSUNNY   83  72  69 S16G24    29.94F HX  88
SILOAM SPGS    PTSUNNY   84  72  65 S15       29.94F HX  89
HIGHFILL       MOSUNNY   84  75  74 S14       29.93F HX  92
SPRINGDALE     PTSUNNY   84  72  65 S20G25    29.96F HX  89
$$

ARZ004-005-016-062300-
NORTH CENTRAL ARKANSAS

CITY           SKY/WX    TMP DP  RH WIND       PRES   REMARKS
BATESVILLE     PTSUNNY   86  73  66 S8G17     29.97F HX  93
FLIPPIN          N/A     88  72  58 S10G18    29.94F HX  94
MTN HOME       CLOUDY    84  72  67 S10G16    29.95F HX  89
$$

ARZ040-041-062300-
WEST CENTRAL ARKANSAS

CITY           SKY/WX    TMP DP  RH WIND       PRES   REMARKS
MENA           MOSUNNY   88  72  58 S5G17     30.01F HX  94
MOUNT IDA      CLOUDY    86  74  67 MISG      29.98F HX  94
$$

ARZ009-017-025-026-028-062300-
NORTHEAST ARKANSAS

CITY           SKY/WX    TMP DP  RH WIND       PRES   REMARKS
JONESBORO      MOSUNNY   87  74  64 SW16      29.98F HX  95
NEWPORT        MOSUNNY   89  75  63 S15       29.99F HX  98
WALNUT RIDGE   MOSUNNY   84  73  70 S15       29.97F HX  91
BLYTHEVILLE    MOSUNNY   86  76  71 S10G20    30.01F HX  96
$$

ARZ022-023-033-042-044-062300-
CENTRAL ARKANSAS

CITY           SKY/WX    TMP DP  RH WIND       PRES   REMARKS
LITTLE ROCK    PTSUNNY   88  71  57 S14       29.99F HX  94
N LITTLE ROCK  PTSUNNY   86  74  68 S12G17    29.99F HX  94
JACKSONVILLE   PTSUNNY   87  72  61 S10       29.99F HX  94
SEARCY         CLOUDY    83  78  85 S5        30.00F HX  93
HOT SPRINGS    PTSUNNY   86  73  65 S8        30.00F HX  93
RUSSELLVILLE   CLOUDY    86  72  62 S10       29.96F HX  92
CLINTON        HVY RAIN  81  75  83 SE5       29.99F VSB 3/4 HX  86
$$

ARZ036-062300-
EAST ARKANSAS

CITY           SKY/WX    TMP DP  RH WIND       PRES   REMARKS
WEST MEMPHIS   PTSUNNY   84  75  74 SW9       30.02F HX  92
$$

ARZ050-053-066-070-073-062300-
SOUTHWEST ARKANSAS

CITY           SKY/WX    TMP DP  RH WIND       PRES   REMARKS
ARKADELPHIA    FAIR      90  75  61 SW13      30.00F HX 100
CAMDEN         MOSUNNY   91  72  52 MISG      30.01F HX  98
TEXARKANA      MOSUNNY   89  72  56 S13       29.99F HX  96
EL DORADO      MOSUNNY   90  73  57 S10       30.02F HX  98
DE QUEEN       MOSUNNY   89  73  59 SW9       29.97F HX  97
$$

ARZ056-057-069-062300-
SOUTHEAST ARKANSAS

CITY           SKY/WX    TMP DP  RH WIND       PRES   REMARKS
PINE BLUFF     MOSUNNY   89  73  59 SW13      30.02F HX  97
STUTTGART      MOSUNNY   88  75  66 MISG      30.00F HX  97
MONTICELLO     MOSUNNY   89  75  63 SW12      30.04S HX  99

$$





USA.gov is the U.S. government's official web portal to all federal, state and local government web resources and services.